Weather History for KIZG - May, 2013

Change the Weather History Date:

Thursday, May 9, 2013

  Actual Average Record
Temperature  
Mean Temperature 60 °F -  
Max Temperature 68 °F 63 °F 87 °F (2007)
Min Temperature 51 °F 36 °F 26 °F (1997)
Degree Days  
Heating Degree Days 6    
Growing Degree Days 10 (Base 50)    
Moisture  
Dew Point 56 °F    
Average Humidity 91    
Maximum Humidity 100    
Minimum Humidity 68    
Precipitation  
Precipitation 0.40 in - - ()
Sea Level Pressure  
Sea Level Pressure 29.97 in    
Wind  
Wind Speed 3 mph (ESE)    
Max Wind Speed 8 mph    
Max Gust Speed -    
Visibility 6 miles    
Events Fog , Rain , Thunderstorm    
Averages and records for this station are not official NWS values.
T = Trace of Precipitation, MM = Missing Value Source: NWS Daily Summary

Daily Weather History Graph

Daily Weather History Graph

Search for Another Location

Airport or City:

Trip Planner

Search our weather history database for the weather conditions in past years. The results will help you decide how hot, cold, wet, or windy it might be!

Date:

Astronomy

May. 09, 2013 Rise Set
Actual Time 5:24 AM EDT 7:56 PM EDT
Civil Twilight 4:51 AM EDT 8:29 PM EDT
Nautical Twilight 4:11 AM EDT 9:10 PM EDT
Astronomical Twilight 3:24 AM EDT 9:57 PM EDT
Moon 5:08 AM EDT (5/9) 7:48 PM EDT (5/9)
Length of Visible Light 15h 37m
Length of Day
14h 32m
Waning Crescent, 0% of the Moon is Illuminated
May 9
Waning Crescent
May 9
New
May 18
First Quarter
May 25
Full
May 31
Last Quarter

Hourly Weather History & Observations

Time (EDT) Temp. Dew Point Humidity Pressure Visibility Wind Dir Wind Speed Gust Speed Precip Events Conditions
12:19 AM 59.0 °F 57.2 °F 94% 30.09 in 10.0 mi Calm Calm - 0.01 in   Overcast
12:54 AM 57.9 °F 57.0 °F 97% 30.09 in 10.0 mi East 4.6 mph - 0.01 in   Overcast
1:54 AM 57.0 °F 55.9 °F 96% 30.07 in 10.0 mi ESE 3.5 mph - N/A   Overcast
2:51 AM 55.4 °F 55.4 °F 100% 30.06 in 2.5 mi SE 5.8 mph - 0.00 in   Overcast
2:54 AM 55.9 °F 55.0 °F 97% 30.06 in 2.5 mi Variable 3.5 mph - 0.00 in Rain Light Rain
3:25 AM 55.4 °F 55.4 °F 100% 30.05 in 5.0 mi East 4.6 mph - 0.10 in Rain Rain
3:36 AM 55.4 °F 55.4 °F 100% 30.04 in 4.0 mi East 3.5 mph - 0.14 in Rain Heavy Rain
3:54 AM 55.9 °F 55.0 °F 97% 30.04 in 4.0 mi ESE 5.8 mph - 0.21 in Rain Heavy Rain
4:13 AM 55.4 °F 55.4 °F 100% 30.04 in 9.0 mi SE 3.5 mph - 0.03 in Rain Light Rain
4:32 AM 55.4 °F 55.4 °F 100% 30.03 in 10.0 mi Calm Calm - 0.03 in Rain Light Rain
4:54 AM 55.0 °F 54.0 °F 96% 30.03 in 10.0 mi Calm Calm - 0.03 in   Overcast
5:54 AM 55.9 °F 55.0 °F 97% 30.03 in 10.0 mi Calm Calm - N/A   Overcast
6:54 AM 55.9 °F 55.0 °F 97% 30.03 in 6.0 mi ESE 3.5 mph - N/A   Overcast
7:11 AM 55.4 °F 55.4 °F 100% 30.02 in 2.5 mi East 3.5 mph - N/A   Overcast
7:37 AM 55.4 °F 55.4 °F 100% 30.02 in 1.5 mi ESE 3.5 mph - N/A   Overcast
7:54 AM 57.0 °F 55.9 °F 96% 30.04 in 1.2 mi ESE 4.6 mph - N/A   Overcast
8:03 AM 55.4 °F 55.4 °F 100% 30.03 in 2.0 mi ESE 4.6 mph - N/A   Overcast
8:26 AM 55.4 °F 55.4 °F 100% 30.03 in 1.8 mi ESE 3.5 mph - N/A   Overcast
8:33 AM 57.2 °F 57.2 °F 100% 30.03 in 3.0 mi ESE 3.5 mph - N/A   Overcast
8:51 AM 57.2 °F 55.4 °F 94% 30.02 in 10.0 mi ESE 3.5 mph - N/A   Overcast
8:54 AM 57.9 °F 55.9 °F 93% 30.03 in 10.0 mi SE 4.6 mph - N/A   Overcast
9:34 AM 60.8 °F 55.4 °F 82% 30.02 in 10.0 mi Variable 3.5 mph - N/A   Overcast
9:54 AM 60.1 °F 55.9 °F 86% 30.02 in 10.0 mi Calm Calm - N/A   Overcast
10:02 AM 60.8 °F 55.4 °F 82% 30.01 in 10.0 mi Variable 3.5 mph - N/A   Overcast
10:10 AM 62.6 °F 55.4 °F 77% 30.00 in 10.0 mi Calm Calm - N/A   Overcast
10:13 AM 62.6 °F 55.4 °F 77% 30.00 in 10.0 mi ESE 3.5 mph - N/A   Overcast
10:28 AM 62.6 °F 55.4 °F 77% 30.00 in 10.0 mi Variable 4.6 mph - N/A   Overcast
10:54 AM 63.0 °F 55.9 °F 78% 30.00 in 10.0 mi SE 6.9 mph - N/A   Mostly Cloudy
11:13 AM 60.8 °F 55.4 °F 82% 30.00 in 10.0 mi Calm Calm - N/A   Overcast
11:54 AM 62.1 °F 57.0 °F 84% 30.00 in 10.0 mi SE 3.5 mph - N/A   Overcast
1:26 PM 64.4 °F 57.2 °F 77% 29.96 in 10.0 mi Calm Calm - 0.00 in   Overcast
1:54 PM 66.9 °F 57.0 °F 70% 29.96 in 10.0 mi ESE 3.5 mph - 0.00 in   Mostly Cloudy
2:30 PM 68.0 °F 57.2 °F 68% 29.94 in 10.0 mi Calm Calm - N/A   Overcast
2:54 PM 68.0 °F 57.0 °F 68% 29.93 in 10.0 mi ESE 6.9 mph - 0.01 in   Mostly Cloudy
3:17 PM 66.2 °F 55.4 °F 68% 29.92 in 10.0 mi Calm Calm - N/A   Mostly Cloudy
3:29 PM 66.2 °F 57.2 °F 73% 29.91 in 10.0 mi ESE 6.9 mph - N/A   Mostly Cloudy
3:37 PM 66.2 °F 57.2 °F 73% 29.91 in 10.0 mi East 6.9 mph - N/A   Overcast
3:54 PM 66.0 °F 57.0 °F 73% 29.92 in 10.0 mi East 5.8 mph - 0.00 in Rain Light Rain
4:01 PM 66.2 °F 57.2 °F 73% 29.91 in 10.0 mi East 8.1 mph - 0.00 in   Overcast
4:31 PM 60.8 °F 57.2 °F 88% 29.93 in 2.5 mi SW 6.9 mph - 0.05 in Rain , Thunderstorm Heavy Rain
4:36 PM 60.8 °F 57.2 °F 88% 29.93 in 1.8 mi SSW 5.8 mph - 0.07 in Rain , Thunderstorm Heavy Rain
4:43 PM 60.8 °F 57.2 °F 88% 29.92 in 3.0 mi Calm Calm - 0.08 in Rain , Thunderstorm Rain
4:50 PM 60.8 °F 57.2 °F 88% 29.92 in 4.0 mi Calm Calm - 0.10 in Rain Rain
4:54 PM 60.1 °F 57.9 °F 93% 29.92 in 4.0 mi Calm Calm - 0.11 in Rain Rain
5:54 PM 60.1 °F 59.0 °F 96% 29.91 in 10.0 mi Calm Calm - 0.02 in Rain Light Rain
6:22 PM 60.8 °F 59.0 °F 94% 29.91 in 10.0 mi Calm Calm - 0.00 in   Overcast
6:30 PM 60.8 °F 59.0 °F 94% 29.91 in 10.0 mi Calm Calm - 0.00 in   Overcast
6:50 PM 60.8 °F 59.0 °F 94% 29.91 in 10.0 mi Calm Calm - 0.00 in   Overcast
6:54 PM 60.1 °F 59.0 °F 96% 29.91 in 10.0 mi Calm Calm - 0.00 in   Mostly Cloudy
7:03 PM 60.8 °F 57.2 °F 88% 29.91 in 10.0 mi Calm Calm - N/A   Scattered Clouds
7:29 PM 60.8 °F 59.0 °F 94% 29.92 in 5.0 mi ESE 3.5 mph - N/A   Scattered Clouds
7:54 PM 59.0 °F 57.9 °F 96% 29.92 in 10.0 mi Calm Calm - N/A   Scattered Clouds
8:13 PM 57.2 °F 55.4 °F 94% 29.93 in 2.0 mi Calm Calm - N/A   Mostly Cloudy
8:28 PM 57.2 °F 55.4 °F 94% 29.93 in 8.0 mi Calm Calm - N/A   Scattered Clouds
8:42 PM 55.4 °F 55.4 °F 100% 29.93 in 1.5 mi Calm Calm - N/A   Partly Cloudy
8:54 PM 55.0 °F 54.0 °F 96% 29.94 in 2.0 mi Calm Calm - N/A   Partly Cloudy
9:01 PM 53.6 °F 53.6 °F 100% 29.94 in 1.5 mi SW 3.5 mph - N/A   Partly Cloudy
9:37 PM 53.6 °F 53.6 °F 100% 29.93 in 0.8 mi Calm Calm - N/A   Mist
9:54 PM 53.1 °F 52.0 °F 96% 29.94 in 0.5 mi Calm Calm - N/A Fog Fog
10:19 PM 53.6 °F 51.8 °F 94% 29.93 in 0.2 mi Calm Calm - 0.01 in Fog Fog
10:22 PM 51.8 °F 51.8 °F 100% 29.93 in 0.5 mi Calm Calm - 0.01 in Fog Fog
10:51 PM 51.8 °F 51.8 °F 100% 29.92 in 0.2 mi Calm Calm - 0.01 in Fog Fog
10:54 PM 52.0 °F 52.0 °F 100% 29.93 in 0.2 mi Calm Calm - 0.01 in Fog Fog
11:31 PM 53.6 °F 53.6 °F 100% 29.92 in 0.8 mi Calm Calm - N/A   Mist
11:54 PM 53.1 °F 53.1 °F 100% 29.92 in 1.8 mi Calm Calm - N/A   Overcast